Location: Baix
(44.7118°N, 4.7648°E)
Time: 10:14:41
(UTC+00:00)

Vanguard 2 Rocket - Pass Details

Date: 26 November 2020
Orbit: 554 x 3325 km, 32.9° (Epoch: 21 January)

Event Time Altitude Azimuth Distance (km) Brightness Sun altitude
Rises 04:52:56 0° 184° (S) 6,934 11.5 -20.8°
Reaches altitude 10° 05:00:34 10° 166° (SSE) 6,191 11.4 -19.4°
Maximum altitude 05:10:27 16° 136° (SE) 5,743 11.7 -17.7°
Drops below altitude 10° 05:20:02 10° 106° (ESE) 6,034 12.4 -16.0°
Sets 05:27:05 0° 88° (E) 6,691 12.8 -14.8°
